Tracking 20037 objects as of 17-Nov-2019
Live streaming from Space Station
objects crossing your sky now

ACRUX 1

Track ACRUX 1 now!
10-day predictions
ACRUX 1 is classified as:


NORAD ID: 44369
Int'l Code: 2019-037E
Perigee: 443.1 km
Apogee: 463.4 km
Inclination: 45.0 °
Period: 93.5 minutes
Semi major axis: 6824 km
RCS: Unknown
Launch date: June 29, 2019
Source: Australia (AUS)
Launch site: Rocket Lab Launch Complex (RLLC)

Uplink (MHz):
Downlink (MHz): 437.200
Beacon (MHz):
Mode: 9600bps GMSK
Call sign: CQCQCQ
Status: Active

aabbcc
Your satellite tracking list
Your tracking list is empty




NASA's NSSDC Master Catalog

Two Line Element Set (TLE):
1 44369U 19037E   19320.76510535  .00004481  00000-0  11804-3 0  9997
2 44369  45.0134 228.0415 0014921   6.7668 353.3402 15.40001036 21617
Source of the keplerian elements: AFSPC